Погода в Олене-Колодезе

Россия / Воронежская область     51°22′09″N   39°14′41″E
темп.,
°C
ветер,
м/с
пор.,
м/с
влажн.,
%
обл.,
%
осадки,
мм/ч
давл.,
гПа
погр.,
м
26 февраля, пт
пт2600:00+2зсз41099100 0.2 1019277
03:00+2зсз51199100 0.3 1019260
06:00+2з411100100 0.1 1018250
09:00+2з510100100 0.2 1017283
12:00+3з712100100 0.0 1016382
15:00+3з71498100 0.0 1015535
18:00+3з61498100 0.1 1013418
21:00+3з61396100 0.3 1012340
27 февраля, сб
сб2700:00+2з51293100 0.0 1011415
03:00+1з51094100 0.0 1011337
06:00+1з51194100 0.0 1009369
09:00+1з51192100 0.0 1009393
12:00+3зсз7118597 0.0 1008846
15:00+2з6109098 0.1 1008639
18:00+1зсз61197100 0.0 1008539
21:00+1сз61296100 0.1 1009619
28 февраля, вс
вс2800:000ссз61096100 0.1 1010579
03:00−4ссз697682 0.1 1013591
06:00−6с587728 0.0 1014636
09:00−6ссз587458 0.0 1017600
12:00−5ссз586747 0.0 1017649
15:00−4ссз586935 0.0 1018662
18:00−4ссз587998 0.0 1019705
21:00−4с577899 0.1 1021757
1 марта, пн
пн100:00−5ссз2576100 0.0 1022559
03:00−5ссз359198 0.1 1023445
06:00−6с369160 0.0 1024324
09:00−5с358662 0.1 1026488
12:00−4с3571100 0.1 1027734
15:00−3с3465100 0.1 1028733
18:00−4ссз347533 0.0 1028390
21:00−5сз238317 0.0 1030270
2 марта, вт
вт200:00−6з35870 0.0 1029175
03:00−5зюз498850 0.0 1028288
06:00−4зюз51185100 0.0 1026359
09:00−3зюз61286100 0.0 1024464
12:000з71290100 0.2 1022627
15:00+1з71287100 0.3 1020633
18:00+1з61392100 0.0 1018560
21:00+1зсз51094100 0.1 1017448